Probability
0 0 0 0 0 0 0 0 0 0 0 0 0 0 0 0 0 0 0 0 0 0 0 0 0 1 2 3 3 2 1 0 0 0 0 0 0 0 0 0 0 0 0 0 0 0 0 0 0
0 0 0 0 0 0 0 0 0 0 0 0 0 0 0 0 0 0 0 0 0 0 0 0 0 1 2 3 3 3 1 0 0 0 0 0 0 0 0 0 0 0 0 0 0 0 0 0 0
0 0 0 0 0 0 0 0 0 0 0 0 0 0 0 0 0 0 0 0 0 0 0 0 0 1 2 3 3 3 2 1 0 0 0 0 0 0 0 0 0 0 0 0 0 0 0 0 0
0 0 0 0 0 0 0 0 0 0 0 0 0 0 0 0 0 0 0 0 0 0 0 0 0 1 2 3 3 3 3 1 0 0 0 0 0 0 0 0 0 0 0 0 0 0 0 0 0
0 0 0 0 0 0 0 0 0 0 0 0 0 0 0 0 0 0 0 0 1 1 1 1 0 1 2 3 3 4 4 2 1 0 0 0 0 0 0 0 0 0 0 0 0 0 0 0 0
0 0 0 0 0 0 0 0 0 0 0 0 0 0 0 0 0 0 0 1 2 3 3 2 1 0 1 1 2 3 3 2 1 0 0 0 0 0 0 0 0 0 0 0 0 0 0 0 0
0 0 0 0 0 0 0 0 0 0 0 0 0 0 0 0 0 0 0 1 2 3 4 3 2 1 0 0 1 1 1 1 1 0 0 0 0 0 0 0 0 0 0 0 0 0 0 0 0
0 0 0 0 0 0 0 0 0 0 0 0 0 0 0 0 0 0 0 0 1 2 3 3 2 1 0 0 0 0 0 0 0 0 0 0 0 0 0 0 0 0 0 0 0 0 0 0 0
0 0 0 0 0 0 0 0 0 0 0 0 0 0 0 0 0 0 0 0 0 1 2 2 1 0 0 0 0 0 0 0 0 0 0 0 0 0 0 0 0 0 0 0 0 0 0 0 0
0 0 0 0 0 0 0 0 0 0 0 0 0 0 0 0 0 0 0 0 0 0 1 1 1 1 0 0 0 0 0 0 0 0 0 0 0 0 0 0 0 0 0 0 0 1 0 0 0
0 0 0 0 0 0 0 0 0 0 0 0 0 0 0 0 0 0 0 0 0 0 1 1 2 2 1 0 0 0 0 0 0 0 0 0 0 0 0 0 0 0 0 0 0 0 0 0 0
0 0 0 0 0 0 0 0 0 0 0 0 0 0 0 0 0 0 0 0 0 0 1 2 3 3 1 0 0 0 0 0 0 0 0 0 0 0 0 0 0 0 0 0 0 0 0 0 0
0 0 0 0 0 0 0 0 0 0 0 0 0 0 0 0 0 0 0 0 0 0 0 1 2 2 2 1 0 0 0 0 0 0 0 0 0 0 0 0 0 0 0 0 0 0 0 0 0
0 0 0 0 0 0 0 0 0 0 0 0 0 0 0 0 0 0 0 0 0 0 0 0 1 2 3 2 1 0 0 0 0 0 0 0 0 0 0 0 0 0 0 0 0 0 0 0 0
0 0 0 0 0 0 0 0 0 0 0 0 0 0 0 0 0 0 0 0 0 0 0 0 0 2 3 2 1 0 1 1 1 0 0 0 0 0 0 0 0 0 0 0 0 0 0 0 0
0 0 0 0 0 0 0 0 0 0 0 0 0 0 0 0 0 0 0 0 0 0 0 0 0 1 2 2 1 0 1 1 1 0 0 0 0 0 0 0 0 0 0 0 0 0 0 0 0
0 0 0 0 0 0 0 0 0 0 0 0 0 0 0 0 0 0 0 0 0 0 0 0 0 1 1 1 0 0 0 0 0 0 0 0 0 0 0 0 0 0 0 0 0 0 0 0 0
0 0 0 0 0 0 0 0 0 0 0 0 0 0 0 0 0 0 0 0 0 0 0 0 0 0 0 0 0 0 0 0 0 0 0 0 0 0 0 0 0 0 0 0 0 0 0 0 0
0 0 0 0 0 0 0 0 0 0 0 0 0 0 0 0 0 0 0 0 0 0 0 0 0 0 0 0 0 0 0 0 0 0 0 0 0 0 0 0 0 0 0 0 0 0 0 0 0
0 0 0 0 0 0 0 0 0 0 0 0 0 0 0 0 0 0 0 0 0 0 0 0 0 0 0 0 0 0 0 0 0 0 0 0 0 0 0 0 0 0 0 0 0 0 0 0 0
0 0 0 0 0 0 0 0 0 0 0 0 0 0 0 0 0 0 0 0 0 0 0 0 0 0 0 0 0 0 0 0 0 0 0 0 0 0 0 0 0 0 0 0 0 0 0 0 0
0 0 0 0 0 0 0 0 0 0 0 0 0 0 0 0 0 0 0 0 0 0 0 0 0 0 0 0 0 0 0 0 0 0 0 0 0 0 0 0 0 0 0 0 0 0 0 0 0
0 0 0 0 0 0 0 0 0 0 0 0 0 0 0 0 0 0 0 0 0 0 0 0 0 0 0 0 0 0 0 0 0 0 0 0 0 0 0 0 0 0 0 0 0 0 0 0 0
0 0 0 0 0 0 0 0 0 0 0 0 0 0 0 0 0 0 0 0 0 0 0 0 0 0 0 0 0 0 0 0 0 0 0 0 0 0 0 0 0 0 0 0 0 0 0 0 0
0 0 0 0 0 0 0 0 0 0 0 0 0 0 0 0 0 0 0 0 0 0 0 0 0 0 0 0 0 0 0 0 0 0 0 0 0 0 0 0 0 0 0 0 0 0 0 0 0
0 0 0 0 0 0 0 0 0 0 0 0 0 0 0 0 0 0 0 0 0 0 0 0 0 0 0 0 0 0 0 0 0 0 0 0 0 0 0 0 0 0 0 0 0 0 0 0 0
0 0 0 0 0 0 0 0 0 0 0 0 0 0 0 0 0 0 0 0 0 0 0 0 0 0 0 0 0 0 0 0 0 0 0 0 0 0 0 0 0 0 0 0 0 0 0 0 0
0 0 0 0 0 0 0 0 0 0 0 0 0 0 0 0 0 0 0 0 0 0 0 0 0 0 0 0 0 0 0 0 0 0 0 0 0 0 0 0 0 0 0 0 0 0 0 0 0
0 0 0 0 0 0 0 0 0 0 0 0 0 0 0 0 0 0 0 0 0 0 0 0 0 0 0 0 0 0 0 0 0 0 0 0 0 0 0 0 0 0 0 0 0 0 0 0 0
0 0 0 0 0 0 0 0 0 0 0 0 0 0 0 0 0 0 0 0 0 0 0 0 0 0 0 0 0 0 0 0 0 0 0 0 0 0 0 0 0 0 0 0 0 0 0 0 0
Wind_Speed
7 3 2 3 4 2 3 5 2 1 1 1 0 4 6 3 2 3 1 3 5 5 4 4 6 8 9 10 9 9 9 8 8 9 9 9 9 8 8 8 8 8 9 9 10 10 10 10 10
2 2 3 4 3 2 4 4 4 3 2 0 2 3 4 2 1 3 2 3 6 6 5 5 6 8 9 9 9 8 8 8 8 8 8 8 8 8 8 8 8 8 9 9 10 10 10 10 10
2 1 3 3 3 5 5 3 4 2 1 0 2 3 3 3 2 3 3 6 6 5 4 4 6 9 9 8 9 8 8 8 7 7 7 7 8 8 7 8 8 8 8 9 9 9 9 9 9
2 3 3 2 5 5 4 3 2 1 1 2 2 3 1 0 3 3 5 7 7 5 4 5 7 9 9 8 8 8 8 7 7 7 7 7 7 7 7 8 8 8 8 8 9 9 9 9 9
3 3 2 2 5 3 3 3 2 1 1 0 2 2 1 1 1 4 6 7 7 5 4 5 7 9 9 8 8 7 7 7 7 6 6 7 6 6 7 7 8 8 8 8 8 8 8 8 8
4 3 2 4 5 3 2 3 1 2 2 1 2 2 2 1 3 4 5 6 7 7 5 5 7 7 8 8 8 7 6 6 7 6 6 6 6 6 7 7 7 7 7 7 8 8 8 7 7
4 3 3 4 3 4 3 2 1 2 2 2 2 3 2 2 2 3 5 6 6 6 5 4 4 5 6 6 7 7 6 6 6 6 6 6 6 6 6 6 6 6 7 7 7 7 7 7 7
4 3 2 2 4 5 2 1 1 2 2 1 2 5 5 5 3 3 5 5 5 5 5 4 4 3 4 4 5 6 6 6 6 6 6 6 5 5 5 5 6 6 6 6 6 6 6 6 6
3 3 3 4 4 4 2 1 2 1 1 1 1 1 3 6 5 5 4 3 4 4 4 4 4 4 3 4 5 5 5 6 5 5 6 5 3 3 3 4 5 5 5 5 6 6 6 5 5
4 3 6 4 3 3 2 2 2 0 1 1 2 2 3 6 6 6 5 5 6 6 5 4 5 4 4 3 3 2 3 3 3 2 3 2 2 2 2 3 4 4 4 4 4 5 5 4 2
4 5 4 3 3 2 2 2 2 2 4 5 5 4 5 5 5 6 6 5 6 6 5 5 5 4 4 3 3 2 2 2 2 3 3 2 2 2 2 1 2 2 2 1 2 2 2 2 1
3 3 3 3 2 2 3 2 2 5 8 5 6 7 7 7 8 8 8 6 5 5 6 5 5 5 4 3 3 3 2 2 2 2 3 3 2 1 1 1 1 1 1 1 1 1 2 2 2
3 3 2 3 2 3 3 4 5 7 7 4 4 6 8 9 9 7 6 6 5 6 6 6 6 6 5 4 3 3 3 3 2 2 2 3 3 2 2 1 1 1 1 1 1 1 2 2 1
3 2 3 4 4 3 3 5 4 9 5 4 6 7 9 9 8 6 6 7 7 6 6 7 7 6 5 4 4 4 3 3 3 3 3 3 3 3 2 2 1 1 1 1 2 2 2 2 1
0 2 4 4 4 3 1 7 8 8 4 5 6 7 7 7 7 8 8 8 8 6 6 6 7 6 6 5 4 3 3 3 3 3 3 3 4 3 3 2 2 2 1 2 2 2 2 1 1
1 1 4 4 4 3 3 10 7 4 5 7 6 6 6 7 7 8 8 7 6 6 6 5 5 6 6 5 4 3 3 3 3 2 3 4 4 4 3 3 2 2 2 2 2 2 2 1 1
0 3 5 4 3 2 4 9 7 4 6 8 7 6 6 6 6 6 7 7 7 7 6 6 5 5 5 5 4 3 3 3 3 2 2 3 4 4 4 3 3 3 2 2 2 2 2 2 1
4 4 4 5 2 3 6 11 10 5 6 8 7 6 6 7 8 6 6 7 6 6 6 6 5 5 5 3 3 2 2 2 2 2 2 3 3 4 4 3 3 3 2 2 2 2 1 2 2
3 4 6 6 3 3 8 12 12 7 6 8 8 7 8 9 6 4 5 5 5 5 6 6 6 5 5 4 3 3 2 2 2 2 3 3 3 4 4 3 3 4 3 4 3 2 2 1 1
5 6 7 5 2 3 6 11 10 7 8 8 9 9 8 6 4 4 5 5 6 6 7 7 6 6 6 4 3 2 2 2 2 1 2 3 3 3 4 4 4 4 3 4 4 3 2 1 2
6 7 7 5 5 3 4 9 7 5 5 6 7 7 7 7 7 6 6 6 6 6 7 7 7 6 5 4 3 2 2 1 1 1 2 2 3 3 3 4 4 4 4 4 5 5 5 3 2
7 5 5 4 3 4 1 7 8 5 5 6 6 6 7 6 6 6 6 6 7 7 6 5 6 6 6 5 5 6 4 4 4 3 2 2 2 3 3 3 4 4 4 4 5 5 3 4 3
6 3 3 4 3 5 3 4 9 3 6 7 6 6 6 6 7 7 7 7 6 5 5 4 5 5 6 6 6 6 4 3 2 2 3 3 3 3 3 3 3 3 4 4 5 4 4 4 4
2 0 1 1 1 5 6 6 9 5 7 5 5 5 5 5 6 6 5 4 3 3 3 4 4 5 5 6 6 6 6 5 4 4 4 3 2 3 3 3 3 3 3 4 5 5 6 5 4
2 3 2 3 2 8 3 5 10 7 5 5 5 5 4 4 5 4 4 4 3 3 3 3 4 4 4 5 6 6 6 6 7 6 5 4 3 3 4 4 4 4 4 4 4 5 5 6 6
4 5 6 5 5 5 2 7 8 5 3 2 2 3 2 2 3 3 4 4 4 4 4 4 4 3 3 4 5 4 5 5 4 5 4 5 4 4 4 5 5 5 4 4 4 4 5 4 6
3 4 3 3 1 4 6 6 8 2 2 2 1 0 1 2 2 2 2 3 3 3 4 4 4 3 3 4 3 3 4 5 5 4 4 4 4 3 4 5 5 5 4 4 4 4 5 5 5
3 3 3 3 3 5 6 5 5 4 3 2 2 2 2 1 1 1 1 2 2 2 2 3 3 4 3 3 3 3 3 4 4 4 5 5 4 4 4 5 5 4 4 4 4 4 3 4 5
3 3 3 3 3 4 4 7 4 4 3 2 2 2 1 1 1 1 1 1 1 1 1 2 2 2 2 2 3 3 3 3 2 3 4 4 4 4 5 5 5 5 5 5 4 4 4 5 5
4 5 5 4 5 4 4 8 2 1 1 1 1 2 2 1 1 0 0 1 0 0 0 1 1 1 2 2 2 2 2 2 2 3 3 3 4 4 5 4 4 5 5 5 5 6 5 6 6
Wind_Direction
337 337 68 58 63 65 232 241 223 267 287 264 73 99 111 115 141 166 131 136 126 145 159 156 139 134 130 125 120 118 114 113 114 115 115 112 109 107 103 101 99 99 98 97 94 90 88 85 82
335 10 62 68 110 194 249 240 220 245 228 192 61 82 91 88 85 118 138 152 135 143 148 147 138 133 131 128 125 123 121 118 114 116 117 117 114 110 108 106 102 100 100 99 96 93 92 87 83
324 92 91 94 163 198 218 224 204 237 302 37 70 62 110 150 148 164 173 147 130 134 140 140 136 136 130 129 128 125 123 121 117 116 119 120 120 117 114 110 104 102 102 102 100 98 95 91 86
60 60 67 112 221 226 213 227 176 152 352 24 102 84 68 93 176 176 148 140 131 134 136 140 137 138 132 128 127 127 127 126 123 119 121 121 122 121 117 114 108 105 103 102 102 100 98 94 89
64 86 102 234 239 246 247 255 202 186 219 301 110 125 185 330 101 138 144 142 138 136 138 145 139 139 135 132 130 129 129 129 125 121 124 124 121 121 121 118 112 109 105 106 107 103 99 94 90
66 80 141 227 237 252 267 269 241 216 226 271 112 135 215 203 130 149 145 142 139 139 138 140 139 138 136 134 134 133 130 128 124 121 120 126 127 124 125 121 118 116 111 111 111 108 103 97 92
114 123 192 215 229 252 254 262 218 206 217 226 157 154 224 231 188 156 138 134 134 138 135 133 134 136 135 134 132 132 129 124 121 119 113 117 120 118 116 121 120 120 117 114 113 111 106 100 95
131 122 212 223 215 236 241 248 230 179 221 267 137 163 210 214 175 134 125 127 131 135 140 138 131 128 133 138 133 128 123 118 113 111 106 104 110 109 106 110 116 116 117 120 118 114 108 102 96
101 103 216 220 203 224 214 220 302 319 140 326 4 197 211 153 139 124 121 127 140 145 149 143 141 136 137 140 133 127 123 119 114 111 107 101 92 93 93 100 113 119 120 123 125 120 110 98 93
107 181 222 220 194 206 226 220 238 297 287 288 336 5 103 136 148 156 163 176 177 176 173 160 156 152 146 144 133 134 133 126 118 116 116 108 100 94 94 93 106 112 114 113 120 119 105 95 82
157 197 218 227 218 214 247 254 240 189 246 224 213 196 162 163 176 182 184 185 193 183 177 175 171 161 152 151 145 144 135 126 123 123 124 113 99 96 90 91 84 93 96 88 98 102 101 98 100
176 221 214 224 224 223 236 240 251 221 232 219 198 176 172 185 197 200 196 193 187 184 183 180 175 165 162 157 158 155 148 149 146 143 139 130 123 121 124 124 127 117 115 127 123 131 116 107 107
212 235 248 252 253 248 251 244 246 250 245 227 185 179 191 201 207 211 203 194 184 188 190 186 176 172 168 160 166 159 163 163 160 155 154 147 145 150 149 148 141 130 122 134 145 143 131 120 108
213 236 266 263 256 251 245 264 250 255 237 214 197 203 208 211 211 206 203 201 196 194 194 187 181 178 171 170 173 171 171 168 163 166 170 162 156 159 161 157 152 148 149 150 140 133 137 135 121
187 305 296 252 228 228 230 279 241 247 218 220 217 216 215 219 213 207 206 202 198 192 188 186 184 178 173 172 172 168 172 169 173 175 177 172 163 165 163 164 168 171 166 151 132 126 109 112 114
13 318 279 258 201 193 176 263 263 236 203 225 228 223 222 223 217 214 208 203 191 178 180 187 184 178 176 173 169 168 176 176 174 175 179 180 173 168 164 167 181 178 170 162 151 144 125 116 107
343 253 254 275 211 180 201 257 273 241 212 231 232 227 224 227 225 219 207 200 190 180 177 181 179 177 177 174 167 165 172 178 173 172 174 182 179 177 173 177 185 171 167 170 164 148 142 151 154
226 236 256 255 243 203 239 260 277 265 225 238 240 233 225 226 227 213 201 195 186 178 176 180 179 176 163 157 146 142 155 171 170 176 183 184 187 183 181 182 184 170 165 171 163 153 144 161 163
225 237 258 259 247 237 248 264 275 270 244 244 244 237 230 232 231 207 188 184 177 175 178 185 180 175 164 160 164 172 187 184 184 187 187 189 188 187 188 190 186 179 179 183 174 154 152 145 123
239 255 267 284 278 251 269 273 272 254 240 234 231 229 228 229 228 204 186 180 179 187 190 190 187 181 179 176 169 163 155 186 190 188 192 196 193 196 199 197 195 190 184 181 178 162 161 163 160
243 235 248 267 312 294 301 295 271 263 249 243 233 225 218 214 210 200 192 192 185 192 200 198 192 186 184 169 146 122 108 97 168 207 216 218 207 203 201 201 199 197 191 193 192 183 174 179 197
244 230 240 260 288 283 230 286 279 258 267 253 241 231 221 213 204 197 193 194 197 201 200 200 194 187 185 173 168 167 179 193 207 203 207 218 213 209 205 201 202 205 200 197 197 193 187 172 188
231 232 226 243 250 280 243 240 278 264 257 257 244 235 226 215 204 198 197 198 197 192 191 197 192 190 189 184 182 185 194 200 192 183 191 207 219 220 214 208 206 212 211 207 201 197 194 190 187
218 32 319 348 116 263 236 210 272 242 236 254 242 234 229 217 206 199 194 186 183 178 182 184 187 193 190 189 189 195 197 191 186 197 202 210 219 222 224 218 218 220 216 215 213 207 203 203 198
143 117 15 342 308 250 238 218 251 255 244 229 230 233 224 216 201 194 185 179 177 174 178 182 184 196 195 192 198 204 202 198 201 202 205 207 214 222 224 219 219 222 222 217 214 210 213 207 204
201 173 175 213 239 275 262 233 254 277 281 259 227 225 213 206 194 189 191 189 185 182 182 185 189 199 198 199 206 208 204 204 211 208 206 209 215 220 218 216 220 221 217 215 213 215 217 212 213
189 209 200 173 263 276 262 273 293 288 312 328 328 300 235 230 200 192 190 187 186 188 192 191 192 202 205 208 209 211 213 213 215 211 210 216 220 215 211 213 218 221 216 214 212 220 220 215 217
195 171 140 172 209 254 273 258 252 264 264 295 306 291 277 267 226 204 197 192 191 194 202 188 191 206 213 211 210 220 225 230 220 209 211 217 220 215 209 214 215 215 213 211 211 221 222 218 221
180 191 191 186 197 208 267 267 237 227 223 234 261 277 279 281 236 229 227 215 195 174 180 192 205 217 221 223 223 227 228 233 229 222 222 220 219 215 213 214 214 213 210 209 212 221 218 222 226
204 205 179 193 236 221 240 268 318 222 231 196 271 315 329 326 326 336 325 358 4 355 181 197 222 245 252 243 235 238 240 231 229 239 241 232 224 219 213 209 208 210 211 209 211 220 222 221 226